Showing default

OPS 9326 (IDSCS 13), 2653

Orbit data source: Space-Track

OPS 9326 (IDSCS 13), 2653 is a payload satellite owned by USAF SSD (US) in GEO that was launched on Wed, 18 Jan 1967 UTC via a TITAN IIIC launch vehicle from the Air Force Eastern Test Range (AFETR). Payload-class satellites include a variety of spacecraft equipped with specific instruments for various scientific and technological missions. These include communications satellites like Starlink; space stations such as the ISS; scientific satellites like the Hubble; Earth observation satellites from companies like Planet Labs, Umbra, and HawkEye 360; GPS; miniature CubeSats for education and research; and military/defense satellites.

Not visible in the next 10 days
Identifier
2653, 1967-003F
Orbit
GEO
Last TLE update
6 days ago
Origin
Manufacturer
Philco-Ford WDL
Mission
Non-operational Defense Communications
Bus & Motor
IDCSP, Unknown motor
Mass
45 kg wet, 45 kg dry
Launch date (UTC)
1967-01-18 (58 years ago)
Launch vehicle
TITAN IIIC
Launch site
Air Force Eastern Test Range (AFETR)
Object type
Payload
Rocket body
Debris
Shape & HBR
Ico Poly, 0.9 m
Radar Cross Section
0.926 m², Medium (>0.1 m² and < 1m²)

Expand to show TLE details & history

TLE from 6 days ago
0 OPS 9326 (IDSCS 13)
1 02653U 67003F   25176.74151695 -.00000116  00000-0  00000-0 0  9990
2 02653   7.5021  49.4695 0046745  54.4369 305.9158  1.07748966128850
Epoch: 2025-06-25T17:47Z
TLE epoch observation values (Epoch: 2025-06-25T17:47:47.064Z)
Latitude
Longitude
-131.66611°
Altitude
33,701.621 km
Speed
3.158 km/s
True Right ascension
03h 17m 35s
True Declination
0° 00' 00"
Sunlit
Object was in daylight at epoch
Visualization orbit readout
Latitude
4.60276°
Longitude
-94.1725°
Altitude
33,631.254 km
Speed
3.164 km/s
Apparent Right ascension
06h 08m 45s
Apparent Declination
-1° 09' 08"
Sunlit
Object is in daylight
Visualization observer readout
Local Sidereal Time
21:23:37
Azimuth
61.507° ENE
Elevation
-31.253°
Doppler factor
1
Orbital elements
Apogee altitude
34,001.612 km
Perigee altitude
33,625.858 km
Semi-major axis
40,191.872 km
Eccentricity
0.00467
Inclination
7.5021°
RAAN
49.4695°
Arg. of periapsis
54.4369°
True anomaly
Unknown
Mean anomaly
305.9158°
Eccentric anomaly
Unknown
Mean motion
0.26936 °/min
Orbital period
1,336.49 mins
BSTAR
0
Loading historical data...
2653 neighbors
Loading maneuver chart data...
Loading SW <> Apogee altitude chart data...
Loading historical data...
Loading historical data...
Loading historical data...
Loading historical data...
Loading historical data...
Loading historical data...
Loading historical data...

OPS 9326 (IDSCS 13) Visibility

Observer location: undefined°, undefined°

OPS 9326 (IDSCS 13) is likely not visible in the next few days
Span
Click to sort rows by Start time (UTC) header in descending order
Start Az.
Max El. time (UTC)
Max El. Az.
Max El.
End time (UTC)
End Az.
|